User: anonymous   Login
Location: Unspecified
(0.0000°N, 0.0000°E)
Time: 10:42:15
(UTC+00:00)
Language:

HO-107 - Orbit

View from above orbital plane
View from above orbital plane
View from above satellite
View from above satellite

Ground track
Ground track

The orbit data is extracted from the following two-line orbital elements,

1 45119U 19071J   21342.84523430  .00003187  00000-0  95103-4 0  9990
2 45119  51.6409 270.2719 0010415 194.4408 165.6279 15.37713903103982
Epoch (UTC): 08 December 2021 20:17:08
Eccentricity: 0.0010415
inclination: 51.6409°
perigee height: 446 km
apogee height: 460 km
right ascension of ascending node: 270.2719°
argument of perigee: 194.4408°
revolutions per day: 15.37713903
mean anomaly at epoch: 165.6279°
orbit number at epoch: 10398

The dashed part of the orbit path shows where the satellite is in the earth's shadow,  

DLR